GW2008 Weather Reports


time (UTC)temp
C
wind
direction
speed
KPH
gust
KPH
rain 1hr
cm
rain 24hr
cm
rain mn
cm
humidity
%
barometer
mb
20260507153950 26 199 4.8 4.8 0.00 0.00 0.00 28 988.5
20260507153447 26 200 1.6 1.6 0.00 0.00 0.00 30 988.5
20260507152943 25 200 1.6 1.6 0.00 0.00 0.00 30 988.6
20260507152439 26 199 8.0 8.0 0.00 0.00 0.00 30 988.4
20260507151936 25 200 1.6 1.6 0.00 0.00 0.00 31 988.5
20260507151432 26 200 1.6 1.6 0.00 0.00 0.00 30 988.4
20260507150929 25 200 1.6 1.6 0.00 0.00 0.00 32 988.3
20260507150426 25 200 3.2 3.2 0.00 0.00 0.00 32 988.2
20260507145922 24 200 1.6 3.2 0.00 0.00 0.00 32 988.2
20260507145418 24 200 0.0 0.0 0.00 0.00 0.00 33 988.3
20260507144915 23 200 1.6 3.2 0.00 0.00 0.00 33 988.3
20260507144412 22 266 3.2 3.2 0.00 0.00 0.00 34 988.4
20260507143909 22 272 4.8 4.8 0.00 0.00 0.00 34 988.7
20260507143407 22 216 1.6 1.6 0.00 0.00 0.00 35 988.2
20260507142903 22 264 3.2 3.2 0.00 0.00 0.00 35 988.4
20260507142359 22 248 3.2 3.2 0.00 0.00 0.00 36 988.5
20260507141856 21 243 0.0 1.6 0.00 0.00 0.00 36 988.4
20260507141352 21 245 1.6 1.6 0.00 0.00 0.00 36 988.5
20260507140849 21 226 0.0 0.0 0.00 0.00 0.00 37 988.3
20260507140346 21 237 0.0 1.6 0.00 0.00 0.00 38 988.1
20260507135844 21 260 0.0 1.6 0.00 0.00 0.00 39 988.1
20260507135340 20 213 1.6 1.6 0.00 0.00 0.00 39 988.3
20260507134838 20 213 1.6 1.6 0.00 0.00 0.00 39 988.1
20260507134333 20 213 3.2 3.2 0.00 0.00 0.00 40 988.2
20260507133830 21 220 0.0 0.0 0.00 0.00 0.00 40 988.0
20260507133325 21 222 0.0 0.0 0.00 0.00 0.00 40 988.1
20260507132824 20 222 0.0 0.0 0.00 0.00 0.00 40 988.0
20260507132320 20 222 0.0 0.0 0.00 0.00 0.00 41 988.2
20260507131818 19 223 0.0 0.0 0.00 0.00 0.00 41 988.1
20260507131314 19 223 0.0 0.0 0.00 0.00 0.00 41 988.1
20260507130811 18 223 0.0 0.0 0.00 0.00 0.00 42 987.8
20260507130308 17 223 0.0 0.0 0.00 0.00 0.00 44 987.6
20260507125807 17 223 0.0 0.0 0.00 0.00 0.00 44 987.9
20260507125306 17 225 0.0 0.0 0.00 0.00 0.00 45 987.8
20260507124801 17 227 0.0 0.0 0.00 0.00 0.00 45 987.8
20260507124257 16 224 0.0 0.0 0.00 0.00 0.00 46 987.9
20260507123756 17 226 0.0 0.0 0.00 0.00 0.00 45 987.9
20260507123253 17 224 0.0 0.0 0.00 0.00 0.00 45 987.8
20260507122748 17 224 0.0 0.0 0.00 0.00 0.00 44 988.0
20260507122244 17 224 0.0 0.0 0.00 0.00 0.00 44 987.7
20260507121740 17 224 0.0 0.0 0.00 0.00 0.00 43 987.6
20260507121236 18 224 0.0 0.0 0.00 0.00 0.00 42 988.0
20260507120732 17 224 0.0 0.0 0.00 0.00 0.00 41 987.8
20260507120230 18 224 0.0 0.0 0.00 0.00 0.00 42 987.8
20260507115726 18 226 0.0 0.0 0.00 0.00 0.00 40 987.8
20260507115222 19 229 0.0 0.0 0.00 0.00 0.00 39 987.6
20260507114717 19 230 1.6 1.6 0.00 0.00 0.00 38 987.7
20260507114215 19 238 1.6 3.2 0.00 0.00 0.00 38 987.8
20260507113712 19 236 3.2 4.8 0.00 0.00 0.00 38 987.9
20260507113209 19 245 1.6 1.6 0.00 0.00 0.00 38 987.7
20260507112707 19 234 1.6 1.6 0.00 0.00 0.00 37 987.8
20260507112203 20 240 0.0 1.6 0.00 0.00 0.00 37 987.8
20260507111701 20 236 0.0 0.0 0.00 0.00 0.00 37 987.8
20260507111158 20 234 1.6 1.6 0.00 0.00 0.00 36 988.0
20260507110653 20 228 0.0 0.0 0.00 0.00 0.00 36 987.8
20260507110151 20 231 1.6 1.6 0.00 0.00 0.00 35 987.8
20260507105647 20 254 1.6 3.2 0.00 0.00 0.00 34 987.9
20260507105143 20 234 0.0 1.6 0.00 0.00 0.00 34 987.8
20260507104641 20 224 3.2 3.2 0.00 0.00 0.00 34 988.0
20260507104137 20 252 4.8 4.8 0.00 0.00 0.00 34 988.1
20260507103633 20 230 0.0 0.0 0.00 0.00 0.00 34 987.9
20260507103130 20 237 0.0 1.6 0.00 0.00 0.00 34 988.2
20260507102626 20 252 1.6 1.6 0.00 0.00 0.00 34 988.1
20260507102123 20 261 1.6 1.6 0.00 0.00 0.00 34 988.2
20260507101619 20 261 1.6 1.6 0.00 0.00 0.00 34 988.2
20260507101115 20 237 1.6 1.6 0.00 0.00 0.00 35 988.3
20260507100612 20 258 3.2 3.2 0.00 0.00 0.00 35 988.3
20260507100110 20 256 3.2 3.2 0.00 0.00 0.00 35 988.2
20260507095608 20 236 0.0 1.6 0.00 0.00 0.00 35 988.3
20260507095104 20 228 0.0 0.0 0.00 0.00 0.00 36 988.2
20260507094600 20 225 0.0 0.0 0.00 0.00 0.00 35 988.4
20260507094057 20 231 0.0 0.0 0.00 0.00 0.00 34 988.2
20260507093555 20 247 1.6 3.2 0.00 0.00 0.00 34 988.1
20260507093054 21 258 4.8 4.8 0.00 0.00 0.00 32 988.2
20260507092549 21 235 0.0 1.6 0.00 0.00 0.00 32 988.3
20260507092046 21 233 1.6 1.6 0.00 0.00 0.00 31 988.1
20260507091543 22 255 3.2 4.8 0.00 0.00 0.00 31 988.1
20260507091039 23 227 0.0 1.6 0.00 0.00 0.00 28 988.3
20260507090535 23 233 1.6 1.6 0.00 0.00 0.00 29 988.3
20260507090032 23 232 4.8 4.8 0.00 0.00 0.00 28 988.2
20260507085529 22 226 3.2 3.2 0.00 0.00 0.00 29 988.1
20260507085026 21 231 3.2 3.2 0.00 0.00 0.00 30 988.3
20260507084522 21 233 1.6 3.2 0.00 0.00 0.00 32 988.2
20260507084020 21 226 0.0 1.6 0.00 0.00 0.00 32 988.3
20260507083516 21 226 0.0 0.0 0.00 0.00 0.00 32 988.1
20260507083013 21 228 0.0 1.6 0.00 0.00 0.00 31 988.3
20260507082509 21 230 1.6 1.6 0.00 0.00 0.00 32 988.4
20260507082005 21 249 3.2 3.2 0.00 0.00 0.00 32 988.6
20260507081502 21 248 3.2 3.2 0.00 0.00 0.00 32 988.5
20260507080959 21 248 1.6 3.2 0.00 0.00 0.00 32 988.4
20260507080454 21 227 0.0 1.6 0.00 0.00 0.00 32 988.5
20260507075950 21 227 0.0 0.0 0.00 0.00 0.00 31 988.5
20260507075446 21 228 0.0 0.0 0.00 0.00 0.00 31 988.3
20260507074943 21 226 0.0 0.0 0.00 0.00 0.00 31 988.5
20260507074440 22 226 0.0 0.0 0.00 0.00 0.00 31 988.5
20260507073938 22 229 0.0 0.0 0.00 0.00 0.00 31 988.5
20260507073434 22 227 1.6 3.2 0.00 0.00 0.00 31 988.3
20260507072931 22 226 0.0 1.6 0.00 0.00 0.00 31 988.5
20260507072428 22 227 1.6 1.6 0.00 0.00 0.00 31 988.5
20260507071920 22 223 1.6 1.6 0.00 0.00 0.00 31 988.6
20260507071417 22 226 0.0 1.6 0.00 0.00 0.00 32 988.6
20260507070913 22 258 3.2 4.8 0.00 0.00 0.00 32 988.5
20260507070411 21 227 0.0 0.0 0.00 0.00 0.00 33 988.6
20260507065907 21 224 0.0 0.0 0.00 0.00 0.00 33 988.6
20260507065404 21 229 1.6 1.6 0.00 0.00 0.00 33 988.5
20260507064901 22 229 3.2 3.2 0.00 0.00 0.00 33 988.5
20260507064359 22 259 4.8 4.8 0.00 0.00 0.00 33 988.8
20260507063857 22 231 3.2 4.8 0.00 0.00 0.00 33 988.7
20260507063354 22 236 3.2 3.2 0.00 0.00 0.00 33 988.6
20260507062851 22 240 3.2 3.2 0.00 0.00 0.00 33 988.6
20260507062347 22 231 0.0 0.0 0.00 0.00 0.00 33 988.7
20260507061845 22 223 1.6 1.6 0.00 0.00 0.00 33 988.5
20260507061343 22 228 0.0 1.6 0.00 0.00 0.00 33 988.5
20260507060841 22 254 3.2 4.8 0.00 0.00 0.00 33 988.5
20260507060338 22 253 4.8 4.8 0.00 0.00 0.00 32 988.4
20260507055835 22 229 3.2 3.2 0.00 0.00 0.00 32 988.5
20260507055329 23 227 1.6 1.6 0.00 0.00 0.00 31 988.7
20260507054827 23 232 1.6 1.6 0.00 0.00 0.00 31 988.7
20260507054322 23 226 0.0 0.0 0.00 0.00 0.00 31 988.5
20260507053820 23 250 0.0 3.2 0.00 0.00 0.00 30 988.6
20260507053318 23 226 1.6 1.6 0.00 0.00 0.00 30 988.4
20260507052816 23 235 1.6 1.6 0.00 0.00 0.00 30 988.6
20260507052313 23 226 0.0 0.0 0.00 0.00 0.00 30 988.3
20260507051811 23 229 0.0 0.0 0.00 0.00 0.00 30 988.3
20260507051308 24 228 3.2 3.2 0.00 0.00 0.00 30 988.4
20260507050804 25 226 0.0 1.6 0.00 0.00 0.00 28 988.3
20260507050301 25 227 4.8 8.0 0.00 0.00 0.00 28 988.3
20260507045758 25 226 3.2 3.2 0.00 0.00 0.00 28 988.4
20260507045254 25 221 4.8 4.8 0.00 0.00 0.00 28 988.2
20260507044751 25 219 1.6 1.6 0.00 0.00 0.00 28 988.3
20260507044248 25 220 4.8 4.8 0.00 0.00 0.00 29 988.1
20260507043744 25 222 0.0 0.0 0.00 0.00 0.00 29 988.2
20260507043241 25 220 0.0 0.0 0.00 0.00 0.00 28 988.1
20260507042737 25 231 8.0 9.7 0.00 0.00 0.00 28 988.0
20260507042232 25 223 1.6 3.2 0.00 0.00 0.00 28 988.0
20260507041730 25 235 8.0 9.7 0.00 0.00 0.00 28 988.0
20260507041226 26 218 4.8 4.8 0.00 0.00 0.00 28 987.8
20260507040724 25 222 4.8 8.0 0.00 0.00 0.00 28 987.9
20260507040219 25 222 4.8 8.0 0.00 0.00 0.00 28 987.7
20260507035715 25 231 4.8 4.8 0.00 0.00 0.00 29 987.8
20260507035211 25 230 1.6 1.6 0.00 0.00 0.00 30 987.9
20260507034708 25 226 4.8 4.8 0.00 0.00 0.00 30 987.8
20260507034206 25 220 4.8 4.8 0.00 0.00 0.00 30 987.8
20260507033704 26 221 3.2 3.2 0.00 0.00 0.00 29 987.4
20260507033201 26 220 1.6 1.6 0.00 0.00 0.00 29 987.5
20260507032659 26 225 0.0 1.6 0.00 0.00 0.00 29 987.5
20260507032154 26 226 0.0 0.0 0.00 0.00 0.00 29 987.4
20260507031651 26 231 3.2 3.2 0.00 0.00 0.00 28 987.2
20260507031148 26 229 1.6 3.2 0.00 0.00 0.00 28 987.2
20260507030644 26 249 3.2 4.8 0.00 0.00 0.00 28 986.7
20260507030142 26 228 1.6 3.2 0.00 0.00 0.00 28 987.2
20260507025639 26 237 4.8 9.7 0.00 0.00 0.00 27 987.1
20260507025136 26 225 1.6 1.6 0.00 0.00 0.00 27 987.0
20260507024634 26 228 3.2 4.8 0.00 0.00 0.00 27 986.8
20260507024131 26 222 0.0 1.6 0.00 0.00 0.00 27 986.8
20260507023626 27 227 0.0 1.6 0.00 0.00 0.00 27 986.8
20260507023124 27 220 4.8 4.8 0.00 0.00 0.00 26 986.4
20260507022621 27 225 3.2 3.2 0.00 0.00 0.00 26 986.7
20260507022116 27 225 0.0 1.6 0.00 0.00 0.00 26 986.7
20260507021613 27 219 3.2 3.2 0.00 0.00 0.00 26 986.9
20260507021109 27 222 6.4 8.0 0.00 0.00 0.00 26 986.7
20260507020607 27 223 6.4 8.0 0.00 0.00 0.00 26 986.4
20260507020103 27 209 6.4 9.7 0.00 0.00 0.00 26 986.5
20260507015602 27 245 3.2 8.0 0.00 0.00 0.00 26 986.6
20260507015059 28 234 3.2 3.2 0.00 0.00 0.00 26 986.9
20260507014555 27 223 4.8 4.8 0.00 0.00 0.00 26 986.7
20260507014045 28 220 4.8 4.8 0.00 0.00 0.00 26 986.6
20260507013542 28 225 1.6 1.6 0.00 0.00 0.00 26 986.7
20260507013039 28 219 8.0 9.7 0.00 0.00 0.00 26 986.7
20260507012536 28 224 4.8 4.8 0.00 0.00 0.00 26 986.7
20260507012027 28 217 6.4 8.0 0.00 0.00 0.00 26 986.8
20260507011524 28 224 6.4 9.7 0.00 0.00 0.00 25 986.6
20260507011020 28 216 8.0 9.7 0.00 0.00 0.00 25 986.7
20260507010515 28 218 3.2 4.8 0.00 0.00 0.00 25 986.5
20260507010011 28 221 1.6 1.6 0.00 0.00 0.00 26 986.7
20260507005509 28 245 8.0 11.3 0.00 0.00 0.00 25 986.6
20260507005005 28 228 4.8 8.0 0.00 0.00 0.00 25 986.6
20260507004502 28 219 6.4 11.3 0.00 0.00 0.00 26 986.6
20260507004000 28 227 0.0 1.6 0.00 0.00 0.00 25 986.9
20260507003455 28 224 4.8 8.0 0.00 0.00 0.00 26 986.7
20260507002950 28 227 3.2 3.2 0.00 0.00 0.00 26 986.5
20260507002447 28 254 4.8 4.8 0.00 0.00 0.00 26 986.6
20260507001944 28 219 3.2 3.2 0.00 0.00 0.00 26 986.6
20260507001440 30 259 1.6 3.2 0.00 0.00 0.00 25 986.8
20260507000938 28 255 1.6 3.2 0.00 0.00 0.00 25 986.6
20260507000435 28 275 8.0 9.7 0.00 0.00 0.00 26 986.7
20260506235929 28 253 4.8 8.0 0.00 0.00 0.00 26 986.7
20260506235427 28 288 4.8 4.8 0.00 0.00 0.00 26 986.8
20260506234921 29 257 3.2 3.2 0.00 0.00 0.00 25 986.6
20260506234420 29 233 3.2 3.2 0.00 0.00 0.00 25 986.8
20260506233917 28 234 3.2 3.2 0.00 0.00 0.00 26 987.0
20260506233414 29 253 1.6 3.2 0.00 0.00 0.00 26 986.8
20260506232910 28 230 4.8 4.8 0.00 0.00 0.00 27 986.9
20260506232406 28 219 0.0 0.0 0.00 0.00 0.00 26 986.9
20260506231902 29 230 3.2 3.2 0.00 0.00 0.00 26 987.1
20260506231400 28 239 3.2 3.2 0.00 0.00 0.00 26 987.0
20260506230857 28 262 6.4 9.7 0.00 0.00 0.00 26 987.2
20260506230354 28 237 1.6 1.6 0.00 0.00 0.00 26 987.1
20260506225850 28 260 6.4 11.3 0.00 0.00 0.00 27 987.2
20260506225348 28 234 4.8 8.0 0.00 0.00 0.00 27 987.3
20260506224844 28 232 1.6 1.6 0.00 0.00 0.00 26 987.4
20260506224342 29 266 4.8 4.8 0.00 0.00 0.00 25 987.2
20260506223838 28 258 3.2 4.8 0.00 0.00 0.00 26 987.3
20260506223333 28 222 8.0 12.9 0.00 0.00 0.00 28 987.3
20260506222831 28 239 3.2 4.8 0.00 0.00 0.00 26 987.4
20260506222326 28 233 4.8 4.8 0.00 0.00 0.00 26 987.5
20260506221824 28 281 8.0 9.7 0.00 0.00 0.00 26 987.5
20260506221321 28 249 6.4 9.7 0.00 0.00 0.00 26 987.6
20260506220819 28 299 3.2 4.8 0.00 0.00 0.00 27 987.6
20260506220314 28 231 4.8 4.8 0.00 0.00 0.00 26 987.8
20260506215810 27 42 0.0 0.0 0.00 0.00 0.00 27 987.8
20260506215306 28 78 3.2 3.2 0.00 0.00 0.00 26 988.0
20260506214803 27 286 8.0 8.0 0.00 0.00 0.00 27 988.0
20260506214300 28 264 8.0 14.5 0.00 0.00 0.00 26 988.0
20260506213758 27 251 0.0 0.0 0.00 0.00 0.00 26 988.3
20260506213254 27 130 3.2 4.8 0.00 0.00 0.00 26 988.3
20260506212752 27 34 4.8 4.8 0.00 0.00 0.00 27 988.6
20260506212248 28 276 4.8 8.0 0.00 0.00 0.00 26 988.5
20260506211743 28 359 4.8 4.8 0.00 0.00 0.00 26 988.6
20260506211239 27 199 1.6 1.6 0.00 0.00 0.00 26 988.6
20260506210736 26 104 8.0 9.7 0.00 0.00 0.00 26 988.5
20260506210233 27 216 0.0 1.6 0.00 0.00 0.00 27 988.8
20260506205730 27 222 4.8 8.0 0.00 0.00 0.00 26 988.7
20260506205226 27 254 3.2 4.8 0.00 0.00 0.00 26 989.0
20260506204718 27 225 0.0 0.0 0.00 0.00 0.00 27 989.2
20260506204215 28 232 4.8 4.8 0.00 0.00 0.00 26 989.0
20260506203713 27 213 1.6 1.6 0.00 0.00 0.00 26 989.1
20260506203209 27 298 9.7 11.3 0.00 0.00 0.00 27 989.0
20260506202708 27 201 6.4 9.7 0.00 0.00 0.00 26 989.1
20260506202203 26 259 4.8 4.8 0.00 0.00 0.00 27 989.3
20260506201701 26 85 3.2 3.2 0.00 0.00 0.00 29 989.4
20260506201156 26 336 8.0 9.7 0.00 0.00 0.00 28 989.3
20260506200654 26 297 4.8 4.8 0.00 0.00 0.00 27 989.3
20260506200150 26 282 3.2 4.8 0.00 0.00 0.00 29 989.5
20260506195646 26 329 8.0 8.0 0.00 0.00 0.00 28 989.5
20260506195142 26 313 4.8 4.8 0.00 0.00 0.00 28 989.6
20260506194635 26 222 3.2 4.8 0.00 0.00 0.00 28 989.6
20260506194131 25 2 4.8 4.8 0.00 0.00 0.00 29 989.6
20260506193629 25 305 8.0 8.0 0.00 0.00 0.00 28 989.7
20260506193126 25 222 3.2 4.8 0.00 0.00 0.00 29 989.7
20260506192623 25 320 6.4 8.0 0.00 0.00 0.00 29 989.9
20260506192119 26 229 8.0 11.3 0.00 0.00 0.00 28 990.0
20260506191615 26 230 8.0 9.7 0.00 0.00 0.00 28 989.7
20260506191110 26 244 6.4 9.7 0.00 0.00 0.00 28 989.8
20260506190603 25 240 3.2 3.2 0.00 0.00 0.00 28 989.8
20260506190059 25 222 11.3 14.5 0.00 0.00 0.00 29 989.9
20260506185556 26 257 3.2 3.2 0.00 0.00 0.00 29 990.0
20260506185053 26 216 1.6 1.6 0.00 0.00 0.00 29 990.0
20260506184551 25 210 0.0 1.6 0.00 0.00 0.00 29 990.2
20260506184048 25 214 0.0 1.6 0.00 0.00 0.00 28 990.3
20260506183544 25 208 0.0 0.0 0.00 0.00 0.00 30 990.5
20260506183040 25 202 4.8 4.8 0.00 0.00 0.00 30 990.3
20260506182538 25 267 6.4 8.0 0.00 0.00 0.00 30 990.6
20260506182035 25 221 4.8 8.0 0.00 0.00 0.00 30 990.6
20260506181533 25 211 8.0 11.3 0.00 0.00 0.00 32 990.6
20260506181030 25 197 0.0 0.0 0.00 0.00 0.00 33 990.7
20260506180526 24 226 4.8 4.8 0.00 0.00 0.00 33 990.6
20260506180023 25 221 0.0 0.0 0.00 0.00 0.00 34 990.8
20260506175519 24 230 3.2 3.2 0.00 0.00 0.00 34 990.8
20260506175016 24 187 4.8 8.0 0.00 0.00 0.00 34 990.7
20260506174515 25 250 1.6 3.2 0.00 0.00 0.00 33 990.7
20260506174010 24 242 1.6 3.2 0.00 0.00 0.00 33 990.7
20260506173508 24 232 8.0 9.7 0.00 0.00 0.00 35 990.6
20260506173005 23 250 8.0 11.3 0.00 0.00 0.00 35 990.8
20260506172502 23 230 4.8 4.8 0.00 0.00 0.00 35 990.6
20260506171958 23 220 4.8 4.8 0.00 0.00 0.00 35 990.8
20260506171455 23 255 4.8 4.8 0.00 0.00 0.00 35 990.7
20260506170953 23 227 3.2 8.0 0.00 0.00 0.00 36 990.8
20260506170449 22 234 1.6 3.2 0.00 0.00 0.00 37 990.8
20260506165942 23 220 8.0 11.3 0.00 0.00 0.00 36 990.6
20260506165440 23 220 1.6 1.6 0.00 0.00 0.00 36 990.6
20260506164935 23 281 6.4 8.0 0.00 0.00 0.00 36 990.9
20260506164432 22 224 1.6 1.6 0.00 0.00 0.00 36 990.6
20260506163925 22 234 4.8 8.0 0.00 0.00 0.00 37 990.7
20260506163419 22 225 8.0 9.7 0.00 0.00 0.00 37 990.7
20260506162914 22 229 4.8 8.0 0.00 0.00 0.00 37 990.7
20260506162412 22 223 6.4 9.7 0.00 0.00 0.00 39 990.6
20260506161909 21 223 4.8 8.0 0.00 0.00 0.00 39 990.5
20260506161408 21 218 3.2 4.8 0.00 0.00 0.00 39 990.6
20260506160905 21 224 8.0 9.7 0.00 0.00 0.00 39 990.6
20260506160401 21 226 3.2 3.2 0.00 0.00 0.00 39 990.6
20260506155900 21 237 8.0 11.3 0.00 0.00 0.00 39 990.5
20260506155356 21 249 8.0 9.7 0.00 0.00 0.00 39 990.5